Vorticity
9 10 10 10 10 10 10 10 10 9 9 10 10 11 11 11 12 13 14 13 12 13 15 16 14 11 9 9 9 9 8 8 7 6 6 6 6 6 6 6 5 6 5 5 4 3 5 8 11 12 10 8 6 4 3 3 2 2 4 3 2 4 5 5 4 3 4 2 4 3 3 7 3 0 9 11 5 2 2 2 3 6 6 1 1 3 2 3
9 10 9 10 11 11 12 12 12 12 11 10 10 11 11 11 11 10 11 11 11 11 12 14 17 17 15 11 9 10 10 10 9 8 7 6 6 6 6 6 6 6 6 5 5 4 3 4 6 8 11 12 12 9 5 4 4 3 3 2 2 4 2 3 4 3 4 3 4 5 3 7 6 1 3 8 8 3 1 1 3 6 7 4 2 3 3 4
10 10 11 11 11 11 12 13 14 14 14 13 12 11 11 12 12 12 11 10 10 10 10 10 13 16 19 17 14 11 10 11 11 9 9 8 6 6 7 7 6 6 6 5 5 5 3 3 3 3 6 9 12 14 11 8 7 5 5 5 5 4 3 3 3 2 2 3 5 4 3 3 4 6 3 3 5 3 2 3 5 6 6 5 4 4 4 4
11 11 12 12 13 13 13 14 14 15 15 14 14 13 13 12 13 13 14 13 11 10 9 9 9 11 14 18 18 16 12 12 13 12 12 10 8 7 6 7 7 7 7 6 5 5 5 4 4 3 3 4 7 10 12 13 11 9 7 6 6 6 5 5 3 2 2 3 5 4 4 3 2 6 5 3 4 2 2 4 7 9 8 5 5 8 6 4
11 12 12 13 13 14 14 14 14 14 14 14 14 14 13 13 13 14 15 15 15 13 12 10 9 9 10 12 16 19 16 14 13 12 13 12 9 9 8 7 7 7 8 8 6 5 5 5 5 5 4 3 3 4 7 10 12 12 10 8 9 9 7 6 5 4 4 4 6 5 4 3 4 7 5 4 3 2 3 5 7 9 9 6 5 7 6 6
12 13 14 15 14 15 15 15 14 14 14 14 14 14 14 13 12 13 14 14 16 16 15 14 12 11 10 10 11 14 17 16 15 13 14 14 11 10 9 8 8 7 8 9 8 7 6 5 4 5 6 6 4 3 4 6 8 9 10 12 12 13 11 11 11 8 7 8 7 6 5 5 7 8 6 4 3 3 6 6 6 7 6 5 5 5 5 7
15 16 17 17 17 17 16 16 16 16 15 15 14 14 15 14 13 13 13 14 15 16 17 16 16 14 12 11 10 10 12 15 17 15 14 14 12 13 11 8 8 7 7 8 10 10 9 7 5 5 5 6 6 6 5 4 5 5 6 8 10 12 14 15 16 14 13 11 9 7 8 9 8 7 5 4 3 4 8 9 7 5 4 4 5 4 1 3
18 18 17 17 17 16 15 15 14 14 15 15 14 14 14 14 14 13 12 12 13 15 16 16 16 16 15 14 12 10 10 13 15 14 14 14 12 13 13 11 9 8 7 6 8 10 11 10 8 6 5 5 5 6 7 5 5 5 3 4 6 8 10 14 16 17 17 14 11 11 11 10 8 8 6 4 5 5 8 10 9 7 5 5 4 3 1 2
17 16 15 14 13 12 12 11 11 11 11 12 12 13 13 13 14 14 14 12 12 13 15 15 15 15 16 16 15 11 9 13 14 13 14 15 14 13 14 14 12 10 9 7 7 8 11 10 10 10 8 7 6 5 6 6 6 6 3 2 4 5 5 9 12 13 16 16 14 14 13 11 9 9 6 5 8 7 6 7 8 7 5 4 4 2 2 -0
14 12 11 10 9 9 9 9 9 9 8 8 9 9 10 10 10 10 11 11 11 11 13 15 15 15 15 15 17 12 10 15 14 12 13 13 14 13 13 14 13 12 11 10 8 9 10 10 11 12 11 9 8 6 5 5 6 7 6 4 2 3 4 6 8 10 12 14 14 13 14 14 12 9 6 6 9 9 5 4 4 6 4 2 2 0 3 4
11 10 9 8 8 8 8 8 8 9 9 9 10 12 12 13 14 14 12 11 11 10 10 13 14 15 15 14 15 13 13 15 13 12 12 11 12 13 12 13 13 13 12 11 9 8 8 9 11 12 11 10 10 9 8 6 5 6 7 7 4 2 4 4 5 8 9 10 12 13 12 12 12 10 8 7 8 7 2 2 3 4 5 2 3 3 7 12
9 8 7 8 8 9 9 9 8 8 9 12 15 16 15 14 15 16 16 15 14 12 10 11 12 13 16 16 12 12 14 14 12 12 12 11 12 13 13 13 13 13 13 13 12 9 7 8 10 11 11 11 11 11 10 9 6 5 6 7 7 4 4 3 4 7 7 8 10 11 8 7 10 11 11 9 6 5 3 4 5 3 5 6 7 6 3 5
6 6 8 10 10 11 11 10 9 9 12 15 13 11 11 10 9 11 13 14 15 15 14 12 12 11 15 18 10 11 16 13 13 14 14 14 13 15 15 14 15 14 13 12 13 12 9 10 9 9 11 11 11 11 11 12 9 7 6 6 7 6 5 4 3 5 6 7 9 8 5 6 10 10 10 10 6 7 7 7 9 9 11 10 5 -0 -3 2
6 8 10 10 11 10 9 9 9 12 15 13 11 12 15 16 16 14 11 11 12 13 14 15 15 12 15 14 7 13 17 12 14 14 13 13 11 13 14 14 15 14 13 11 12 13 11 12 10 7 9 10 11 12 11 12 12 11 8 6 7 6 7 7 5 4 4 6 7 4 4 8 9 8 9 9 6 8 10 9 12 13 11 6 1 0 3 7
9 10 10 9 9 7 8 9 11 12 12 14 20 21 20 19 18 16 17 18 17 16 15 15 16 15 16 12 5 12 16 11 13 12 11 11 9 11 11 10 13 13 13 12 11 10 10 13 12 9 8 8 11 12 11 10 10 12 10 7 7 6 8 8 4 4 6 7 7 3 3 8 8 6 7 7 7 8 8 8 9 7 5 3 4 8 11 9
9 8 8 8 7 9 12 15 17 20 23 27 25 18 14 12 11 14 14 11 13 21 23 21 21 19 15 10 6 11 14 11 13 12 12 12 10 13 11 8 10 12 13 13 11 9 9 10 10 11 8 6 10 11 12 11 9 9 8 8 7 6 9 8 4 5 8 7 6 3 2 6 8 7 6 5 6 5 5 9 10 8 8 7 9 11 12 11
7 7 7 6 7 11 16 23 29 30 29 23 13 9 8 6 7 4 -1 7 25 40 40 30 27 23 14 9 8 11 12 10 13 12 12 13 11 14 15 12 10 10 12 13 13 11 10 9 7 9 9 6 9 10 11 11 10 10 8 8 8 6 8 8 6 5 6 5 3 2 3 4 5 7 7 6 6 3 3 7 7 8 10 8 8 10 12 14
7 7 6 7 10 13 19 28 30 22 16 9 7 9 6 7 7 1 14 45 60 59 54 47 42 33 19 13 12 13 13 9 11 12 10 11 11 13 15 16 13 9 10 11 12 12 11 10 7 8 8 6 4 3 5 7 10 14 12 10 9 7 7 8 8 5 5 6 3 2 3 3 3 5 7 9 9 7 4 4 4 8 8 6 7 8 9 10
8 6 6 11 15 16 21 25 18 9 8 8 11 10 9 12 6 10 45 62 41 32 41 49 58 51 28 18 17 16 15 10 10 11 8 9 11 12 11 12 14 11 9 10 10 11 12 11 9 6 4 4 4 5 7 7 9 13 14 13 11 9 8 9 10 7 5 6 5 3 3 4 4 4 5 6 8 11 11 8 9 12 9 5 5 5 5 6
8 6 10 17 19 19 21 16 8 6 8 9 11 13 14 12 6 27 56 45 15 11 20 28 50 59 39 27 25 19 16 11 8 10 7 6 9 14 13 9 12 12 10 10 11 12 12 12 10 7 6 7 9 10 9 7 8 10 12 14 13 10 10 10 11 9 6 4 5 6 5 4 4 4 6 5 5 8 7 5 8 11 8 4 3 4 5 5
8 7 14 22 21 19 18 11 5 7 10 10 11 14 15 8 12 37 47 32 21 15 13 17 34 49 41 37 37 25 18 12 8 10 7 5 6 10 15 13 10 11 12 12 12 10 9 9 9 9 10 9 8 8 8 8 7 9 11 12 13 11 10 12 12 10 8 5 4 6 6 5 5 4 6 6 6 7 3 4 9 8 5 3 2 4 6 6
8 9 16 24 20 18 18 8 4 10 12 11 12 13 13 7 12 38 42 29 25 15 11 16 25 36 33 38 47 30 17 13 7 9 7 5 7 7 12 15 12 13 15 14 10 8 8 8 9 9 10 9 8 7 7 9 8 8 9 11 13 12 11 11 11 11 10 7 4 3 5 6 5 5 6 6 6 7 5 4 6 4 3 4 3 3 7 10
9 12 19 24 18 19 19 7 4 12 11 9 14 12 11 6 3 27 40 28 20 11 9 15 22 34 33 39 55 40 21 16 10 9 8 5 7 7 9 13 13 12 14 14 12 10 11 11 10 9 10 9 9 7 6 7 7 8 7 8 12 13 12 12 12 10 8 8 6 4 4 5 5 4 4 3 4 6 5 2 2 2 3 5 5 4 7 10
12 17 21 21 17 20 20 11 5 8 8 8 15 13 8 6 -1 9 26 28 27 19 16 20 21 29 28 32 51 48 30 19 11 9 7 6 7 7 8 11 11 11 12 14 14 15 15 14 11 9 11 10 9 9 7 6 6 8 8 7 10 13 13 14 12 9 8 9 8 6 4 4 5 5 3 3 3 3 2 1 0 2 4 6 6 7 8 8
15 18 19 18 18 18 20 20 11 8 10 7 16 18 7 5 3 1 7 17 25 25 26 28 26 30 28 28 40 46 37 22 14 11 6 4 6 6 7 9 9 9 11 14 14 15 13 12 12 11 11 12 10 9 8 8 8 9 9 7 8 12 13 13 11 8 8 8 8 7 4 3 3 5 4 4 3 2 2 1 1 4 8 10 11 10 9 8
15 16 15 15 18 16 18 23 18 15 13 8 18 22 7 4 6 2 4 6 6 10 19 24 30 34 28 29 38 42 36 24 20 17 7 5 6 5 5 6 8 7 10 14 13 13 12 10 11 11 11 12 12 10 8 9 9 8 9 8 8 11 12 12 11 8 8 8 8 8 6 5 4 4 4 4 4 3 2 2 3 5 8 8 9 10 10 8
11 13 14 14 18 17 15 19 21 19 12 12 24 22 9 8 6 3 5 8 4 3 11 16 24 33 30 29 38 46 36 20 26 25 8 7 8 5 6 5 6 7 6 12 13 12 12 9 9 10 10 11 13 12 9 10 10 8 10 9 9 12 12 12 12 10 8 6 7 9 8 6 6 5 5 5 5 4 3 2 2 1 3 6 5 5 6 6
8 12 14 13 16 17 15 17 20 20 18 24 28 17 13 15 9 5 5 8 7 3 9 11 7 20 35 32 33 51 43 17 26 31 12 13 14 7 8 5 4 6 6 11 12 10 12 10 9 10 10 12 13 11 10 11 10 9 9 9 10 13 13 12 11 11 9 5 5 8 8 8 7 5 5 6 4 4 5 5 3 2 5 10 8 5 5 4
6 12 13 12 13 17 20 19 14 15 21 33 25 5 11 20 15 13 9 7 7 3 9 10 1 9 29 35 29 40 45 25 23 24 12 17 19 9 9 6 1 4 7 11 10 8 11 11 10 10 10 12 11 9 12 12 11 10 9 10 12 12 12 11 11 11 9 7 7 7 6 7 7 5 3 5 4 4 6 5 4 4 9 13 10 7 7 7
6 10 14 13 9 14 24 20 12 7 7 18 21 10 11 17 19 19 10 7 8 5 9 10 7 5 12 31 36 31 38 37 25 16 11 18 20 13 10 7 4 3 6 9 8 8 10 10 11 11 10 10 10 11 12 11 10 11 9 10 12 10 10 10 9 9 11 13 11 6 5 5 6 6 4 3 5 9 10 9 7 5 9 15 15 13 11 9
6 9 15 14 5 11 22 21 21 19 9 6 10 15 17 13 19 19 10 13 14 10 13 10 7 6 0 12 32 33 34 41 33 16 11 18 19 16 11 7 6 4 6 8 8 8 8 9 12 12 8 8 10 11 11 11 10 11 10 11 11 9 10 8 6 10 16 17 10 4 6 6 3 4 4 3 4 8 9 10 10 5 5 11 13 13 14 11
6 8 14 15 7 9 16 15 20 26 28 23 14 17 18 10 14 16 11 16 17 9 5 -1 2 10 7 6 20 32 32 37 39 22 12 16 16 15 13 7 4 5 6 6 7 8 9 9 12 11 8 7 8 10 11 10 8 9 10 9 6 5 7 6 6 10 12 10 7 5 7 6 3 4 5 5 5 6 7 7 6 3 3 9 12 12 11 7
5 8 13 18 11 8 12 10 10 14 23 31 29 25 17 7 11 18 16 14 14 10 -3 -2 10 8 6 7 9 24 33 34 39 30 17 16 16 15 14 11 7 7 8 6 5 9 7 7 12 12 9 6 6 9 10 9 8 8 7 5 2 -1 1 3 4 8 9 6 5 6 8 7 5 6 5 5 8 8 9 10 8 6 3 4 10 13 10 4
5 9 13 19 13 9 12 8 7 13 17 25 33 33 26 21 20 24 24 14 12 8 -9 -0 18 11 12 15 3 17 36 31 33 35 23 18 19 16 11 10 8 6 8 7 7 9 7 7 12 13 11 8 7 8 9 11 12 11 12 14 9 -1 0 5 6 7 9 8 4 3 10 9 3 5 7 8 10 5 -0 1 3 6 6 6 11 11 5 3
5 7 9 18 15 9 14 11 5 7 9 16 25 28 28 26 25 27 20 9 10 12 3 8 18 18 26 21 5 21 38 28 28 33 25 20 20 17 11 8 7 4 5 7 9 9 8 9 11 12 12 10 9 9 9 10 11 11 12 9 3 2 8 13 12 9 9 8 6 5 8 8 4 5 8 8 5 -5 -11 -8 -1 5 7 5 3 -3 -6 4
5 5 4 16 19 13 14 14 8 2 -2 5 14 20 23 18 20 26 20 13 15 18 15 12 11 16 25 19 13 25 30 26 31 32 26 23 20 18 14 10 8 7 5 5 8 10 9 9 11 12 12 10 9 9 8 8 11 13 7 0 6 16 17 16 11 8 7 6 8 11 8 6 8 7 4 3 3 0 -1 -0 0 4 5 0 -4 -5 -1 10
4 4 1 13 20 15 14 12 12 9 5 11 16 17 20 16 14 14 14 19 22 17 12 9 12 21 28 25 21 26 24 23 33 35 26 24 23 18 15 12 9 8 6 5 6 9 9 9 11 13 11 10 10 11 10 9 12 15 9 8 18 18 9 9 10 6 7 5 6 13 11 5 6 8 5 1 -3 0 7 5 -0 3 6 1 -1 2 6 11
6 5 0 12 19 15 14 14 14 13 10 14 17 15 15 16 18 17 15 19 22 18 13 14 18 19 26 30 20 21 26 23 33 40 26 20 24 19 14 13 11 8 7 6 6 9 10 8 11 12 10 8 9 10 9 9 12 15 14 15 16 9 3 8 9 6 5 4 5 10 12 10 7 7 9 6 -0 1 4 1 -2 2 4 1 4 12 13 14
8 8 1 11 22 17 9 11 19 19 13 8 9 15 16 16 23 25 20 24 29 29 30 35 32 19 27 44 41 36 31 23 37 45 26 20 24 20 15 14 13 11 8 5 6 9 10 8 11 13 9 8 11 13 9 7 10 11 14 17 10 3 7 7 6 5 0 2 13 15 10 11 11 7 9 12 13 13 8 3 -0 -0 6 13 21 25 15 7
8 9 4 9 23 22 5 2 18 24 17 11 6 13 22 23 25 23 20 26 29 27 31 39 33 17 15 24 33 43 38 28 39 37 21 23 25 18 16 15 13 13 9 6 7 10 10 7 11 14 11 12 14 13 11 11 11 8 11 15 7 4 10 7 2 1 -8 -7 13 24 17 11 11 11 10 7 6 6 7 10 11 10 14 16 15 15 13 11
9 9 4 3 13 24 12 -1 13 25 20 14 11 15 25 27 22 23 24 21 14 10 15 22 20 17 14 2 1 27 46 43 35 23 19 27 24 17 17 15 14 12 8 5 5 10 11 5 9 16 15 16 15 11 13 18 15 11 13 13 9 7 7 4 1 -2 -8 -12 -3 16 27 22 15 14 14 9 2 3 10 11 4 6 11 8 7 12 17 20
9 7 4 -0 0 17 22 5 6 23 23 14 9 10 16 15 10 16 20 12 7 8 10 14 12 8 10 7 -4 6 38 48 27 12 21 27 22 18 15 14 15 12 8 9 10 15 15 8 13 22 17 10 11 11 13 18 17 15 18 17 10 5 3 4 3 -3 -5 -6 -12 -2 16 24 23 20 17 16 8 1 5 3 -6 1 9 3 0 2 -1 1
7 8 7 2 -3 11 27 15 2 13 20 18 15 10 10 11 7 6 8 9 9 7 2 6 14 12 11 16 9 -1 20 42 28 15 24 26 21 18 13 15 20 12 6 9 14 17 16 11 17 28 20 4 8 20 21 22 20 15 20 21 12 6 3 2 -0 -6 -5 -1 -7 -10 -2 8 17 22 18 16 12 -2 -6 -2 0 7 10 -0 -10 -16 -19 -10
4 10 10 5 1 7 19 19 7 3 8 12 16 14 13 16 11 1 -2 1 1 7 14 7 5 11 6 7 17 11 13 28 26 21 26 27 25 21 17 21 21 13 7 8 12 13 12 13 18 27 25 5 6 23 24 22 21 15 19 22 12 6 4 -3 -8 -6 -1 3 2 -1 -2 -5 -2 9 13 9 8 6 3 5 7 6 2 -3 -9 -12 -7 6
6 8 11 7 2 1 8 15 14 10 6 3 6 9 11 16 16 7 -1 -6 -9 5 20 4 -8 6 8 7 22 19 9 15 22 25 26 28 32 26 20 23 19 16 14 8 9 9 8 12 14 20 24 7 -0 10 11 12 16 14 17 21 13 6 4 -2 -8 -7 -3 0 9 14 12 6 -5 -6 3 4 2 5 4 3 3 2 -1 -5 -6 1 13 20
12 4 8 11 6 -0 2 7 15 21 16 6 4 6 10 16 19 18 16 16 15 19 22 11 10 26 27 18 18 16 17 21 24 31 30 29 32 25 19 21 17 14 7 -3 3 7 5 8 8 12 19 11 7 15 17 18 17 13 16 19 16 8 2 -1 -5 -4 -5 -11 -5 10 16 19 14 1 -1 3 3 2 2 2 2 1 -1 -1 3 12 22 20
18 8 5 12 9 2 0 -0 8 23 24 14 5 2 7 11 13 15 16 18 22 24 28 24 20 25 24 11 5 15 25 18 19 32 32 26 25 22 22 19 9 4 -5 -6 10 8 3 12 9 9 17 14 14 21 23 24 18 13 17 18 17 11 2 1 -1 -4 -5 -13 -14 -1 9 13 19 19 11 4 4 5 1 0 1 1 5 12 20 25 24 16
18 12 5 10 9 3 2 -1 0 14 23 19 8 2 3 5 8 8 -0 -0 4 3 11 19 19 24 26 12 9 24 23 9 18 31 26 23 21 12 16 11 -1 4 -0 -0 14 5 -1 15 12 11 20 13 13 20 18 18 15 10 15 18 18 15 2 2 6 -3 -9 -3 -2 -2 2 5 4 11 18 11 4 3 -2 -1 6 13 21 23 23 25 21 15
14 14 10 8 6 2 1 0 1 7 16 18 10 4 1 3 12 15 9 9 6 -3 -0 12 20 26 21 11 14 22 15 11 27 29 17 23 19 3 11 7 -7 7 10 0 7 3 -1 11 6 8 18 10 11 21 15 13 12 7 12 16 18 18 4 -3 7 3 -11 -4 7 2 4 15 8 1 12 19 15 12 11 15 19 21 26 25 20 21 19 15
12 15 16 10 4 4 4 2 2 4 10 15 9 3 6 14 19 21 21 16 8 15 23 18 23 26 15 15 18 12 15 20 23 22 17 17 8 -1 12 6 -11 7 14 -3 2 7 5 10 4 4 16 10 10 19 14 11 10 2 5 13 15 17 10 -2 2 7 -3 -8 4 6 2 17 26 17 14 22 28 28 23 21 21 20 22 23 23 25 21 16
9 11 18 17 8 8 11 8 3 2 9 17 14 9 13 17 10 3 5 -1 -2 26 34 13 20 27 14 22 15 -8 14 34 19 19 24 9 -2 2 9 -1 -7 13 13 -8 1 13 10 13 9 6 13 12 11 18 14 11 10 -1 -5 9 17 12 9 6 1 4 6 -1 2 9 -0 -2 12 19 16 13 13 12 10 12 18 17 14 16 20 20 18 16
7 6 11 18 16 11 13 13 6 3 9 12 13 15 10 4 1 -5 -5 -4 5 28 29 15 26 27 15 27 6 -31 5 47 29 16 10 -12 -9 10 10 -3 1 16 7 -9 0 9 8 12 11 7 11 11 12 17 14 10 11 5 -0 9 17 8 4 11 5 -3 4 5 2 7 5 -6 -8 1 9 8 4 2 3 11 18 14 9 12 14 13 13 15
Height
5722 5720 5719 5717 5716 5714 5713 5711 5710 5709 5708 5708 5707 5707 5707 5707 5708 5708 5709 5709 5710 5711 5713 5715 5717 5719 5720 5722 5725 5728 5731 5734 5736 5739 5743 5745 5745 5748 5753 5754 5757 5762 5766 5770 5773 5777 5781 5784 5788 5791 5795 5798 5801 5804 5806 5807 5809 5810 5811 5811 5812 5815 5819 5824 5830 5834 5837 5842 5846 5848 5848 5847 5849 5851 5849 5848 5849 5849 5849 5849 5851 5851 5852 5852 5851 5852 5854 5856
5717 5714 5713 5711 5710 5708 5707 5705 5704 5703 5702 5701 5700 5700 5699 5699 5700 5700 5701 5701 5702 5703 5705 5706 5708 5710 5713 5715 5718 5720 5724 5726 5729 5732 5734 5736 5739 5743 5746 5749 5751 5755 5760 5763 5767 5770 5774 5778 5782 5785 5789 5792 5795 5799 5801 5802 5804 5806 5807 5807 5807 5812 5818 5823 5828 5831 5834 5837 5841 5844 5845 5844 5846 5848 5847 5844 5844 5846 5846 5846 5848 5848 5848 5847 5847 5849 5852 5853
5711 5708 5707 5705 5703 5701 5700 5699 5697 5696 5695 5694 5693 5692 5692 5692 5692 5692 5693 5694 5694 5695 5696 5698 5700 5702 5705 5708 5710 5713 5716 5718 5722 5724 5725 5729 5734 5736 5739 5743 5745 5749 5754 5756 5760 5764 5767 5772 5776 5779 5783 5786 5790 5793 5796 5797 5799 5801 5803 5801 5804 5811 5816 5821 5824 5827 5831 5834 5837 5841 5841 5841 5843 5844 5843 5841 5840 5842 5842 5843 5844 5845 5845 5843 5843 5846 5849 5850
5704 5702 5700 5698 5696 5694 5693 5692 5690 5689 5688 5687 5686 5685 5685 5685 5684 5684 5685 5686 5687 5688 5689 5690 5692 5694 5697 5700 5702 5705 5708 5711 5714 5716 5719 5723 5726 5729 5733 5737 5739 5743 5747 5750 5753 5757 5761 5765 5769 5773 5776 5780 5785 5787 5791 5793 5794 5796 5797 5798 5803 5810 5813 5817 5821 5824 5828 5830 5833 5836 5837 5838 5840 5840 5839 5838 5837 5839 5839 5840 5841 5842 5841 5840 5841 5844 5846 5847
5698 5696 5693 5692 5690 5688 5686 5684 5683 5682 5681 5680 5679 5678 5678 5677 5677 5677 5677 5678 5679 5680 5681 5683 5684 5686 5689 5692 5694 5698 5700 5703 5707 5710 5712 5715 5718 5723 5727 5730 5733 5737 5741 5744 5747 5751 5755 5759 5763 5767 5771 5775 5779 5782 5787 5790 5790 5791 5794 5797 5802 5806 5809 5814 5818 5821 5824 5826 5829 5831 5832 5835 5836 5835 5835 5834 5834 5836 5836 5837 5837 5838 5839 5837 5838 5840 5841 5843
5691 5689 5687 5685 5682 5681 5679 5677 5676 5674 5674 5673 5672 5671 5671 5670 5670 5670 5670 5670 5671 5672 5673 5675 5676 5679 5681 5683 5687 5690 5692 5696 5700 5703 5705 5707 5712 5717 5720 5723 5727 5730 5734 5738 5742 5746 5749 5753 5757 5761 5765 5770 5773 5778 5784 5786 5786 5788 5792 5796 5799 5802 5805 5811 5815 5817 5820 5822 5824 5826 5828 5832 5831 5830 5830 5831 5831 5832 5833 5834 5834 5835 5835 5835 5835 5836 5837 5839
5685 5682 5680 5678 5676 5674 5672 5671 5670 5668 5667 5666 5665 5665 5664 5664 5663 5663 5663 5663 5663 5663 5665 5667 5669 5671 5673 5675 5679 5682 5687 5690 5692 5695 5698 5701 5705 5709 5713 5716 5719 5723 5727 5732 5736 5740 5744 5748 5752 5756 5760 5765 5769 5774 5779 5781 5783 5785 5790 5793 5795 5798 5802 5807 5812 5813 5815 5817 5819 5822 5823 5826 5826 5826 5826 5827 5827 5827 5829 5830 5831 5831 5832 5832 5832 5833 5835 5836
5679 5676 5674 5672 5671 5669 5667 5665 5664 5662 5661 5660 5659 5658 5658 5657 5657 5657 5657 5657 5657 5656 5657 5659 5661 5664 5665 5668 5670 5675 5681 5681 5682 5687 5691 5694 5698 5701 5705 5709 5713 5717 5721 5725 5730 5734 5738 5743 5747 5751 5755 5760 5764 5769 5773 5776 5779 5782 5786 5789 5791 5794 5799 5804 5807 5808 5811 5813 5815 5816 5818 5820 5821 5822 5823 5823 5823 5823 5824 5827 5829 5829 5828 5828 5829 5831 5832 5833
5674 5671 5669 5667 5666 5664 5662 5660 5658 5657 5656 5654 5653 5652 5651 5650 5650 5650 5650 5650 5650 5650 5650 5651 5654 5656 5658 5661 5663 5669 5673 5671 5675 5681 5684 5687 5690 5693 5698 5702 5707 5711 5716 5720 5724 5728 5733 5737 5742 5745 5750 5755 5759 5764 5768 5772 5776 5779 5782 5785 5786 5791 5796 5799 5802 5804 5807 5809 5810 5811 5813 5816 5817 5818 5819 5819 5819 5819 5820 5823 5826 5826 5824 5824 5826 5828 5829 5830
5670 5667 5665 5663 5661 5659 5657 5655 5653 5652 5650 5649 5647 5646 5645 5644 5643 5642 5642 5643 5642 5643 5643 5644 5646 5648 5651 5654 5657 5663 5664 5663 5669 5673 5675 5680 5683 5687 5692 5696 5701 5706 5710 5714 5719 5724 5729 5733 5736 5740 5744 5749 5754 5758 5763 5767 5772 5774 5776 5780 5783 5787 5792 5795 5798 5801 5803 5804 5806 5807 5809 5811 5812 5814 5815 5815 5816 5815 5817 5821 5825 5824 5822 5821 5824 5826 5827 5828
5666 5664 5662 5660 5657 5655 5653 5650 5648 5646 5644 5643 5640 5639 5637 5636 5636 5635 5635 5634 5635 5635 5636 5637 5638 5640 5644 5646 5653 5657 5654 5656 5661 5664 5668 5673 5676 5681 5686 5690 5695 5699 5703 5708 5713 5718 5724 5727 5730 5733 5738 5743 5748 5753 5757 5762 5767 5768 5770 5775 5780 5783 5787 5790 5793 5797 5798 5799 5801 5803 5804 5805 5806 5809 5811 5812 5811 5812 5814 5819 5822 5822 5821 5820 5821 5823 5824 5825
5662 5660 5658 5656 5654 5651 5648 5646 5644 5641 5639 5636 5634 5631 5629 5629 5628 5627 5627 5626 5627 5627 5628 5630 5630 5633 5635 5640 5650 5648 5643 5648 5653 5658 5664 5667 5670 5675 5679 5684 5688 5692 5697 5702 5706 5712 5717 5720 5724 5728 5733 5738 5743 5748 5752 5757 5760 5763 5766 5771 5776 5778 5782 5786 5790 5794 5795 5796 5799 5799 5799 5799 5801 5805 5807 5808 5808 5810 5813 5817 5820 5820 5820 5820 5820 5821 5821 5821
5658 5656 5653 5651 5648 5646 5643 5641 5638 5636 5633 5630 5628 5625 5622 5621 5620 5619 5619 5618 5618 5618 5619 5620 5622 5625 5626 5635 5645 5637 5635 5643 5647 5652 5656 5658 5663 5668 5672 5677 5681 5685 5691 5695 5700 5705 5710 5714 5718 5723 5728 5733 5738 5742 5747 5752 5755 5759 5763 5766 5772 5774 5778 5784 5787 5790 5792 5793 5795 5795 5794 5796 5799 5801 5803 5805 5806 5809 5812 5814 5817 5818 5819 5819 5819 5819 5819 5819
5654 5651 5648 5646 5643 5640 5637 5635 5632 5629 5626 5624 5621 5618 5615 5614 5612 5611 5610 5609 5608 5609 5610 5610 5613 5615 5618 5630 5635 5627 5629 5636 5639 5643 5645 5650 5657 5661 5666 5670 5674 5679 5684 5689 5693 5698 5704 5708 5713 5718 5723 5728 5733 5737 5742 5747 5750 5756 5759 5762 5768 5770 5775 5782 5783 5786 5789 5791 5792 5790 5791 5795 5797 5798 5800 5802 5805 5808 5810 5812 5815 5817 5818 5818 5817 5817 5816 5817
5650 5647 5644 5640 5638 5634 5631 5628 5625 5622 5619 5616 5613 5611 5608 5606 5605 5603 5601 5599 5598 5598 5598 5598 5601 5604 5611 5623 5623 5618 5622 5627 5630 5634 5638 5646 5651 5654 5659 5663 5667 5673 5678 5683 5687 5692 5697 5702 5708 5713 5718 5724 5728 5732 5737 5741 5745 5751 5753 5757 5763 5766 5771 5777 5779 5783 5787 5788 5788 5787 5789 5792 5794 5795 5798 5801 5804 5806 5808 5810 5813 5815 5816 5815 5815 5815 5815 5815
5646 5643 5639 5636 5632 5629 5625 5622 5618 5615 5612 5609 5607 5604 5602 5600 5598 5595 5592 5590 5587 5585 5585 5586 5588 5593 5603 5611 5611 5612 5615 5618 5623 5628 5635 5642 5645 5649 5653 5657 5663 5668 5672 5676 5681 5686 5691 5697 5703 5708 5713 5717 5723 5728 5732 5736 5741 5745 5749 5754 5759 5762 5766 5771 5774 5779 5784 5785 5784 5784 5786 5790 5792 5793 5796 5799 5802 5803 5806 5808 5811 5812 5813 5812 5813 5813 5813 5813
5642 5639 5635 5632 5627 5623 5619 5615 5612 5609 5606 5604 5602 5599 5596 5594 5592 5588 5583 5579 5575 5572 5571 5574 5576 5583 5594 5601 5602 5603 5605 5610 5618 5624 5629 5635 5639 5643 5647 5653 5657 5661 5665 5670 5675 5681 5686 5692 5698 5702 5707 5712 5718 5723 5727 5731 5736 5741 5746 5750 5753 5756 5760 5766 5770 5776 5780 5780 5781 5783 5785 5788 5790 5792 5795 5798 5799 5801 5803 5806 5809 5810 5810 5810 5811 5811 5811 5812
5639 5635 5631 5627 5622 5618 5614 5610 5607 5604 5602 5600 5597 5594 5591 5588 5584 5580 5574 5567 5562 5559 5559 5562 5565 5574 5586 5590 5589 5591 5597 5606 5612 5616 5622 5628 5633 5637 5642 5647 5650 5654 5660 5663 5669 5675 5680 5686 5692 5696 5701 5706 5712 5717 5722 5728 5734 5739 5742 5744 5747 5750 5755 5762 5768 5772 5776 5777 5779 5781 5783 5786 5788 5790 5793 5796 5797 5798 5801 5804 5806 5807 5808 5809 5810 5810 5810 5810
5636 5632 5627 5622 5617 5613 5609 5606 5603 5600 5598 5595 5593 5590 5586 5583 5578 5572 5565 5558 5554 5553 5551 5552 5554 5562 5572 5574 5574 5581 5593 5600 5603 5609 5616 5622 5626 5630 5635 5640 5644 5650 5654 5658 5664 5669 5675 5681 5684 5690 5697 5704 5710 5715 5720 5726 5730 5734 5737 5741 5745 5749 5753 5760 5766 5770 5774 5776 5777 5779 5782 5784 5787 5789 5792 5793 5794 5796 5798 5801 5803 5805 5807 5808 5808 5808 5808 5808
5632 5628 5623 5618 5613 5609 5605 5602 5599 5597 5594 5591 5588 5585 5581 5577 5572 5565 5558 5552 5550 5549 5547 5546 5546 5550 5558 5561 5564 5574 5585 5590 5596 5603 5610 5616 5621 5624 5629 5633 5639 5645 5650 5656 5661 5664 5669 5674 5680 5690 5699 5705 5709 5712 5716 5720 5724 5729 5734 5738 5743 5747 5752 5759 5764 5767 5770 5772 5775 5777 5780 5782 5785 5787 5789 5790 5792 5794 5796 5799 5801 5802 5804 5805 5805 5806 5806 5806
5629 5624 5619 5614 5609 5605 5602 5599 5595 5593 5590 5587 5584 5580 5576 5572 5566 5560 5554 5550 5547 5544 5544 5542 5540 5543 5548 5551 5555 5565 5574 5582 5591 5597 5602 5610 5615 5619 5624 5629 5634 5641 5648 5652 5655 5659 5664 5670 5682 5693 5697 5699 5702 5707 5712 5716 5721 5727 5731 5734 5739 5744 5749 5756 5761 5764 5766 5769 5772 5774 5777 5779 5782 5784 5786 5787 5789 5791 5794 5796 5797 5798 5800 5802 5803 5803 5804 5804
5625 5620 5615 5609 5605 5601 5598 5595 5592 5589 5586 5583 5579 5576 5572 5568 5562 5556 5550 5548 5544 5540 5539 5538 5537 5539 5543 5543 5546 5555 5565 5576 5585 5589 5595 5604 5610 5616 5620 5624 5631 5638 5643 5645 5649 5655 5661 5673 5684 5687 5688 5692 5697 5703 5708 5713 5718 5723 5727 5731 5737 5741 5746 5752 5757 5760 5762 5765 5768 5771 5774 5776 5778 5781 5783 5784 5787 5789 5791 5792 5793 5794 5797 5799 5800 5801 5801 5802
5622 5616 5611 5606 5601 5597 5594 5591 5588 5585 5582 5579 5575 5572 5568 5564 5559 5553 5547 5546 5543 5538 5535 5535 5535 5537 5539 5539 5539 5546 5559 5570 5577 5581 5588 5597 5605 5611 5615 5621 5628 5633 5636 5641 5648 5654 5663 5673 5676 5676 5681 5688 5693 5699 5703 5708 5714 5719 5724 5728 5733 5738 5742 5747 5752 5755 5757 5761 5765 5768 5770 5772 5774 5777 5779 5781 5783 5785 5787 5788 5790 5792 5795 5797 5798 5799 5799 5800
5618 5613 5607 5603 5598 5594 5591 5588 5585 5582 5579 5575 5571 5568 5565 5561 5556 5552 5546 5543 5540 5536 5534 5533 5533 5534 5535 5533 5534 5542 5553 5561 5567 5573 5581 5591 5599 5605 5611 5616 5621 5627 5634 5641 5647 5654 5661 5665 5667 5672 5679 5684 5688 5693 5698 5704 5710 5716 5720 5724 5729 5734 5738 5743 5748 5752 5754 5758 5761 5764 5766 5767 5769 5772 5776 5778 5780 5782 5784 5786 5788 5790 5792 5794 5795 5796 5798 5798
5615 5610 5605 5600 5595 5591 5587 5584 5581 5578 5575 5572 5568 5565 5561 5558 5554 5550 5546 5542 5539 5536 5533 5532 5531 5530 5530 5530 5533 5539 5546 5554 5562 5568 5577 5586 5593 5600 5606 5610 5616 5624 5632 5638 5643 5649 5654 5658 5665 5672 5676 5679 5685 5690 5696 5702 5708 5713 5717 5721 5726 5731 5735 5739 5745 5749 5751 5754 5757 5759 5760 5761 5765 5769 5773 5775 5777 5779 5781 5784 5786 5788 5789 5791 5792 5794 5796 5797
5612 5607 5603 5598 5593 5588 5584 5581 5578 5575 5571 5568 5565 5562 5558 5555 5552 5548 5545 5542 5538 5535 5533 5531 5529 5528 5528 5529 5532 5536 5543 5552 5557 5564 5573 5581 5588 5596 5601 5606 5614 5622 5629 5633 5637 5643 5649 5655 5662 5667 5672 5678 5682 5687 5694 5700 5705 5710 5714 5719 5723 5727 5731 5736 5741 5745 5748 5750 5753 5755 5756 5759 5763 5766 5770 5772 5774 5777 5779 5781 5784 5786 5787 5789 5791 5792 5794 5795
5611 5606 5601 5596 5591 5586 5582 5578 5575 5571 5568 5565 5562 5559 5556 5553 5550 5547 5544 5541 5538 5535 5533 5531 5529 5527 5527 5529 5531 5535 5543 5549 5552 5559 5569 5577 5583 5591 5598 5604 5611 5616 5622 5626 5631 5639 5646 5651 5657 5663 5669 5674 5679 5687 5693 5698 5702 5706 5711 5716 5720 5724 5729 5733 5738 5741 5744 5747 5749 5752 5755 5758 5761 5764 5768 5770 5772 5774 5776 5779 5782 5784 5786 5788 5789 5790 5791 5792
5609 5604 5599 5594 5589 5584 5580 5575 5572 5568 5565 5562 5559 5557 5554 5551 5548 5545 5543 5540 5538 5535 5533 5531 5529 5528 5528 5528 5531 5534 5541 5546 5549 5555 5564 5570 5577 5586 5594 5600 5605 5610 5616 5621 5629 5638 5643 5646 5653 5661 5666 5671 5679 5687 5691 5695 5699 5703 5709 5713 5717 5722 5726 5730 5736 5739 5741 5742 5743 5748 5752 5753 5756 5761 5764 5766 5768 5770 5774 5778 5780 5783 5785 5786 5787 5788 5789 5790
5608 5603 5598 5593 5588 5583 5578 5573 5570 5566 5563 5559 5557 5555 5552 5549 5546 5543 5541 5539 5537 5535 5533 5531 5530 5529 5528 5528 5529 5531 5536 5542 5546 5550 5556 5562 5571 5581 5589 5594 5600 5606 5612 5620 5628 5633 5637 5643 5651 5657 5663 5671 5679 5683 5686 5690 5694 5699 5705 5710 5714 5719 5723 5728 5732 5735 5737 5737 5739 5745 5748 5748 5751 5757 5760 5760 5763 5767 5773 5777 5779 5781 5783 5784 5785 5785 5787 5788
5607 5602 5597 5591 5586 5581 5576 5572 5568 5564 5561 5558 5555 5552 5549 5547 5544 5542 5540 5538 5536 5535 5533 5531 5530 5529 5528 5528 5528 5529 5533 5539 5544 5547 5552 5558 5567 5576 5583 5590 5597 5604 5611 5618 5622 5627 5634 5641 5648 5655 5663 5670 5674 5676 5681 5686 5691 5697 5702 5707 5712 5716 5720 5724 5728 5731 5732 5733 5738 5742 5744 5745 5747 5751 5755 5756 5762 5769 5774 5776 5777 5779 5780 5781 5782 5783 5785 5786
5606 5601 5596 5591 5586 5581 5576 5571 5567 5563 5559 5556 5553 5550 5547 5545 5542 5540 5539 5537 5535 5534 5532 5531 5530 5529 5528 5528 5528 5529 5531 5536 5540 5543 5548 5554 5562 5570 5578 5586 5593 5601 5608 5614 5620 5627 5633 5638 5645 5654 5659 5663 5667 5672 5677 5682 5687 5694 5699 5704 5709 5713 5717 5721 5723 5726 5727 5730 5737 5740 5741 5741 5740 5745 5752 5756 5763 5769 5771 5773 5775 5776 5778 5779 5780 5781 5783 5784
5605 5600 5595 5590 5586 5581 5576 5571 5566 5561 5557 5554 5551 5548 5545 5543 5541 5539 5537 5536 5534 5534 5532 5530 5530 5529 5528 5527 5528 5528 5529 5533 5537 5540 5545 5551 5558 5566 5574 5583 5592 5600 5607 5614 5621 5627 5631 5638 5644 5648 5650 5655 5661 5667 5672 5677 5683 5690 5695 5699 5704 5709 5713 5716 5718 5722 5725 5729 5734 5737 5737 5736 5736 5743 5751 5755 5761 5766 5769 5771 5772 5774 5776 5777 5778 5779 5781 5782
5605 5600 5595 5590 5585 5580 5576 5571 5566 5561 5557 5553 5549 5546 5544 5541 5539 5538 5536 5535 5534 5533 5532 5530 5529 5528 5527 5527 5527 5527 5528 5531 5534 5539 5544 5549 5555 5564 5573 5581 5590 5599 5607 5614 5619 5624 5629 5634 5638 5640 5646 5652 5657 5663 5669 5674 5679 5685 5689 5693 5697 5702 5705 5709 5714 5718 5723 5727 5731 5734 5734 5732 5734 5742 5748 5753 5759 5764 5767 5769 5770 5771 5772 5774 5775 5777 5778 5780
5604 5599 5595 5590 5585 5580 5575 5571 5567 5562 5557 5553 5549 5545 5543 5540 5539 5537 5535 5534 5533 5532 5531 5529 5528 5527 5525 5525 5525 5526 5526 5528 5531 5536 5542 5547 5553 5561 5569 5577 5586 5594 5602 5608 5614 5621 5625 5629 5635 5642 5649 5653 5658 5664 5669 5674 5678 5683 5687 5690 5694 5698 5701 5706 5711 5715 5720 5723 5727 5730 5729 5727 5732 5739 5746 5753 5758 5760 5762 5763 5765 5767 5769 5771 5773 5775 5777 5778
5604 5599 5595 5590 5585 5580 5576 5572 5568 5564 5559 5554 5550 5546 5543 5540 5538 5537 5535 5534 5533 5532 5530 5529 5527 5525 5524 5523 5523 5524 5525 5526 5529 5534 5539 5545 5551 5560 5568 5577 5585 5593 5598 5605 5613 5621 5625 5631 5639 5645 5649 5654 5658 5662 5666 5670 5675 5681 5685 5688 5691 5697 5703 5708 5712 5716 5719 5721 5723 5725 5725 5726 5732 5739 5746 5752 5754 5754 5756 5758 5761 5763 5766 5769 5771 5773 5775 5776
5605 5600 5595 5590 5586 5581 5577 5573 5569 5565 5560 5556 5552 5548 5544 5541 5539 5537 5536 5534 5533 5531 5529 5528 5526 5524 5523 5522 5522 5523 5523 5525 5528 5532 5538 5544 5552 5561 5569 5577 5585 5592 5598 5605 5614 5620 5626 5633 5639 5642 5646 5652 5656 5660 5662 5666 5672 5678 5682 5684 5690 5698 5703 5707 5712 5715 5717 5718 5719 5722 5725 5727 5731 5737 5743 5748 5749 5751 5753 5755 5758 5761 5764 5767 5769 5771 5773 5774
5605 5600 5596 5591 5587 5583 5578 5574 5570 5566 5562 5558 5553 5549 5546 5543 5541 5538 5537 5535 5533 5531 5529 5528 5526 5524 5523 5522 5522 5522 5523 5525 5528 5532 5538 5545 5553 5561 5568 5576 5584 5591 5598 5606 5612 5618 5625 5632 5636 5639 5644 5649 5653 5658 5661 5665 5670 5676 5680 5684 5691 5697 5700 5705 5710 5712 5714 5715 5716 5720 5724 5725 5728 5733 5739 5743 5746 5748 5750 5753 5756 5759 5762 5765 5767 5769 5771 5772
5606 5601 5596 5592 5588 5584 5579 5575 5572 5568 5564 5559 5555 5551 5548 5545 5542 5540 5537 5535 5533 5531 5529 5527 5526 5524 5523 5522 5522 5523 5524 5525 5528 5532 5538 5545 5553 5561 5568 5575 5584 5591 5598 5604 5609 5615 5622 5629 5633 5637 5642 5647 5651 5655 5658 5662 5670 5676 5679 5684 5689 5692 5696 5702 5706 5708 5711 5713 5714 5718 5721 5722 5725 5731 5737 5742 5744 5746 5749 5751 5754 5757 5761 5764 5766 5767 5768 5770
5606 5602 5598 5594 5589 5585 5582 5578 5573 5569 5565 5561 5558 5554 5550 5547 5545 5541 5539 5537 5535 5533 5530 5528 5527 5526 5525 5524 5523 5524 5525 5527 5530 5534 5540 5547 5555 5561 5568 5576 5584 5591 5596 5602 5608 5614 5620 5626 5631 5634 5640 5645 5648 5652 5655 5661 5668 5673 5675 5681 5688 5692 5696 5700 5703 5705 5709 5711 5713 5716 5718 5719 5723 5729 5736 5740 5743 5745 5747 5750 5753 5757 5760 5763 5764 5765 5766 5767
5607 5604 5600 5596 5592 5588 5585 5580 5576 5571 5567 5564 5561 5557 5553 5550 5547 5543 5541 5539 5537 5535 5533 5531 5529 5529 5528 5527 5526 5527 5528 5529 5532 5537 5543 5550 5556 5562 5569 5576 5583 5590 5596 5601 5607 5613 5619 5625 5628 5633 5639 5642 5644 5651 5658 5662 5666 5667 5669 5676 5684 5690 5695 5700 5702 5704 5707 5709 5712 5714 5715 5718 5723 5729 5734 5738 5741 5744 5746 5749 5753 5756 5759 5760 5762 5763 5764 5766
5608 5606 5602 5598 5594 5591 5587 5583 5578 5573 5569 5566 5564 5560 5557 5553 5550 5547 5544 5542 5540 5538 5537 5535 5534 5533 5532 5531 5531 5531 5532 5533 5536 5540 5546 5551 5557 5563 5569 5576 5583 5589 5594 5600 5606 5612 5619 5624 5627 5631 5635 5640 5647 5654 5660 5664 5666 5667 5669 5675 5681 5687 5692 5696 5698 5702 5706 5708 5710 5712 5714 5718 5723 5727 5732 5736 5739 5742 5745 5748 5751 5754 5757 5759 5760 5762 5763 5764
5609 5606 5603 5599 5596 5592 5588 5584 5580 5576 5572 5569 5566 5563 5561 5558 5554 5552 5549 5547 5545 5542 5541 5540 5538 5537 5537 5537 5537 5537 5538 5540 5542 5545 5550 5554 5559 5564 5570 5577 5583 5588 5595 5602 5609 5615 5620 5623 5626 5630 5635 5641 5648 5653 5657 5662 5666 5668 5671 5676 5681 5685 5689 5692 5696 5700 5704 5707 5709 5710 5713 5717 5721 5725 5730 5733 5737 5740 5743 5746 5749 5752 5755 5757 5758 5760 5761 5762
5610 5607 5603 5600 5597 5594 5590 5586 5583 5579 5575 5572 5569 5566 5564 5561 5558 5556 5554 5552 5550 5548 5546 5544 5543 5542 5543 5543 5544 5544 5545 5546 5548 5551 5554 5557 5561 5565 5571 5578 5583 5589 5596 5604 5610 5615 5619 5623 5627 5631 5635 5639 5645 5650 5655 5660 5663 5666 5670 5676 5681 5685 5689 5693 5697 5701 5704 5706 5708 5710 5712 5716 5720 5723 5727 5730 5733 5737 5740 5743 5746 5749 5752 5755 5756 5757 5759 5761
5610 5608 5605 5601 5598 5595 5591 5588 5585 5582 5578 5575 5572 5570 5568 5566 5563 5560 5558 5556 5554 5553 5551 5550 5549 5549 5550 5550 5550 5550 5551 5551 5553 5555 5556 5560 5564 5568 5573 5579 5585 5591 5598 5605 5611 5617 5621 5625 5627 5630 5633 5636 5641 5645 5650 5654 5658 5663 5669 5674 5680 5684 5688 5692 5696 5700 5703 5705 5707 5710 5712 5715 5719 5722 5724 5727 5730 5734 5737 5740 5742 5746 5749 5752 5754 5755 5757 5758
5612 5609 5606 5603 5600 5597 5593 5590 5587 5585 5582 5579 5577 5574 5572 5570 5567 5564 5562 5559 5557 5557 5556 5555 5555 5555 5555 5554 5555 5555 5555 5555 5556 5558 5560 5563 5567 5571 5576 5582 5589 5596 5602 5607 5612 5617 5621 5623 5625 5628 5632 5634 5637 5641 5646 5652 5657 5662 5668 5673 5678 5683 5687 5690 5693 5696 5699 5703 5706 5708 5711 5714 5717 5720 5722 5725 5728 5731 5734 5737 5740 5743 5746 5748 5751 5753 5754 5756
5614 5611 5607 5605 5602 5599 5596 5593 5590 5587 5585 5582 5580 5578 5576 5574 5571 5569 5567 5563 5562 5562 5561 5559 5558 5558 5557 5557 5558 5557 5558 5559 5560 5562 5564 5567 5571 5575 5580 5587 5594 5600 5605 5609 5612 5615 5619 5622 5624 5628 5632 5636 5641 5646 5650 5654 5658 5661 5666 5671 5676 5681 5685 5688 5691 5693 5697 5702 5704 5707 5710 5713 5715 5718 5720 5723 5727 5730 5733 5735 5738 5741 5743 5745 5748 5750 5751 5753
5614 5611 5609 5606 5604 5601 5598 5595 5592 5589 5587 5585 5583 5581 5579 5577 5576 5573 5571 5569 5567 5567 5565 5563 5561 5560 5560 5561 5561 5560 5561 5562 5564 5566 5567 5570 5575 5580 5585 5590 5596 5601 5605 5608 5611 5615 5619 5622 5625 5629 5633 5638 5644 5648 5651 5654 5658 5661 5665 5669 5674 5679 5682 5686 5689 5692 5696 5700 5703 5706 5709 5711 5714 5716 5719 5722 5725 5728 5731 5734 5736 5739 5741 5743 5744 5746 5748 5749
5613 5611 5609 5607 5605 5603 5600 5597 5594 5591 5589 5587 5585 5583 5581 5580 5578 5577 5575 5573 5572 5570 5569 5567 5565 5564 5563 5563 5564 5564 5564 5566 5568 5569 5572 5575 5578 5582 5587 5592 5597 5601 5605 5608 5612 5616 5620 5622 5626 5630 5634 5638 5643 5647 5651 5654 5658 5661 5666 5669 5673 5677 5681 5684 5687 5692 5695 5698 5701 5705 5707 5710 5713 5715 5717 5721 5723 5726 5730 5732 5734 5736 5738 5739 5741 5742 5744 5746
5614 5611 5609 5608 5606 5604 5601 5599 5596 5593 5591 5589 5587 5585 5584 5582 5580 5579 5577 5576 5574 5573 5572 5571 5570 5568 5567 5567 5567 5568 5569 5570 5571 5572 5575 5580 5583 5586 5590 5594 5598 5603 5607 5610 5614 5618 5621 5624 5627 5630 5634 5638 5642 5646 5650 5654 5658 5662 5666 5670 5673 5676 5680 5683 5687 5691 5694 5696 5700 5703 5706 5709 5712 5714 5716 5719 5722 5725 5727 5730 5732 5734 5735 5736 5738 5739 5741 5743
5616 5613 5611 5608 5606 5605 5602 5600 5598 5595 5593 5591 5589 5587 5586 5585 5583 5581 5579 5578 5576 5575 5574 5574 5574 5572 5571 5571 5571 5572 5573 5574 5574 5576 5579 5583 5587 5591 5594 5597 5600 5605 5609 5612 5615 5619 5622 5625 5629 5631 5634 5638 5642 5645 5649 5653 5657 5661 5666 5669 5672 5675 5679 5682 5686 5689 5692 5695 5698 5702 5704 5707 5709 5712 5714 5717 5719 5722 5725 5728 5731 5732 5733 5734 5735 5736 5738 5739
5617 5615 5612 5609 5607 5605 5603 5601 5599 5596 5595 5593 5591 5589 5588 5587 5585 5583 5582 5580 5579 5578 5577 5576 5576 5576 5575 5575 5576 5576 5578 5579 5579 5580 5583 5586 5590 5595 5598 5600 5603 5607 5611 5614 5617 5620 5623 5627 5629 5632 5635 5638 5642 5645 5649 5652 5656 5661 5665 5668 5670 5674 5678 5681 5684 5687 5690 5694 5697 5700 5703 5705 5707 5710 5713 5715 5718 5720 5724 5727 5729 5730 5732 5733 5734 5734 5736 5737
5616 5614 5612 5610 5608 5606 5604 5602 5600 5598 5596 5594 5593 5591 5589 5588 5587 5585 5584 5582 5581 5580 5580 5579 5579 5579 5578 5579 5580 5580 5582 5584 5585 5587 5589 5592 5596 5599 5601 5603 5605 5608 5612 5616 5618 5621 5624 5627 5630 5633 5636 5638 5641 5645 5648 5652 5656 5660 5663 5666 5669 5674 5677 5679 5683 5686 5689 5692 5695 5698 5701 5704 5706 5708 5711 5714 5716 5719 5723 5726 5728 5729 5731 5732 5732 5733 5734 5735